Location: Madrid
(40.4167°N, 3.7036°W)
Time: 20:47:22
(UTC+00:00)

ISS - Pass Details

Date: 08 July 2025
Orbit: 413 x 417 km, 51.6° (Epoch: 13 July)

Event Time Altitude Azimuth Distance (km) Brightness Sun altitude
Rises 22:20:27 0° 264° (W) 2,345 0.4 -21.3°
Reaches altitude 10° 22:22:47 10° 279° (W) 1,485 -0.5 -21.5°
Maximum altitude 22:25:35 25° 336° (NNW) 894 -1.3 -21.8°
Drops below altitude 10° 22:28:24 10° 34° (NNE) 1,492 -0.6 -22.1°
Sets 22:30:45 0° 48° (NE) 2,358 0.2 -22.3°
